Time,TemperatureF,DewpointF,PressureIn,WindDirection,WindDirectionDegrees,WindSpeedMPH,WindSpeedGustMPH,Humidity,HourlyPrecipIn,Conditions,Clouds,dailyrainin,SoftwareType,DateUTC
2013-03-04 00:01:00,27.7,26.5,29.98,WNW,302,0.0,0.0,95,0.00,,---,0.00,VWS V14.01,2013-03-04 07:01:00,
2013-03-04 00:06:00,27.7,26.5,29.97,WNW,303,0.0,0.0,95,0.00,,---,0.00,VWS V14.01,2013-03-04 07:06:00,
2013-03-04 00:11:00,27.8,26.6,29.97,WNW,303,0.0,0.0,95,0.00,,---,0.00,VWS V14.01,2013-03-04 07:11:00,
2013-03-04 00:16:00,27.8,26.6,29.97,WNW,303,0.0,0.0,95,0.00,,---,0.00,VWS V14.01,2013-03-04 07:16:00,
2013-03-04 00:21:00,27.8,26.6,29.96,WNW,303,0.0,0.0,95,0.00,,---,0.00,VWS V14.01,2013-03-04 07:21:00,
2013-03-04 00:26:00,27.8,26.6,29.96,WNW,303,0.0,0.0,95,0.00,,---,0.00,VWS V14.01,2013-03-04 07:26:00,
2013-03-04 00:31:00,27.8,26.6,29.96,WNW,303,0.0,0.0,95,0.00,,---,0.00,VWS V14.01,2013-03-04 07:31:00,
2013-03-04 00:36:00,27.8,26.6,29.96,WNW,303,0.0,0.0,95,0.00,,---,0.00,VWS V14.01,2013-03-04 07:36:00,
2013-03-04 00:41:00,27.8,26.6,29.96,WNW,303,0.0,0.0,95,0.00,,---,0.00,VWS V14.01,2013-03-04 07:41:00,
2013-03-04 00:46:00,27.8,26.6,29.97,WNW,303,0.0,0.0,95,0.00,,---,0.00,VWS V14.01,2013-03-04 07:46:00,
2013-03-04 00:51:00,27.8,26.6,29.96,WNW,303,0.0,0.0,95,0.00,,---,0.00,VWS V14.01,2013-03-04 07:51:00,
2013-03-04 00:56:00,27.8,26.6,29.96,WNW,303,0.0,0.0,95,0.00,,---,0.00,VWS V14.01,2013-03-04 07:56:00,
2013-03-04 01:01:00,27.8,26.6,29.96,WNW,303,0.0,0.0,95,0.00,,---,0.00,VWS V14.01,2013-03-04 08:01:00,
2013-03-04 01:06:00,27.7,26.5,29.95,WNW,303,0.0,0.0,95,0.00,,---,0.00,VWS V14.01,2013-03-04 08:06:00,
2013-03-04 01:11:00,27.7,26.5,29.95,WNW,303,0.0,0.0,95,0.00,,---,0.00,VWS V14.01,2013-03-04 08:11:00,
2013-03-04 01:16:00,27.7,26.5,29.95,WNW,303,0.0,0.0,95,0.00,,---,0.00,VWS V14.01,2013-03-04 08:16:00,
2013-03-04 01:21:00,27.7,26.5,29.94,WNW,303,0.0,0.0,95,0.00,,---,0.00,VWS V14.01,2013-03-04 08:21:00,
2013-03-04 01:26:00,27.6,26.4,29.94,WNW,303,0.0,0.0,95,0.00,,---,0.00,VWS V14.01,2013-03-04 08:26:00,
2013-03-04 01:31:00,27.6,26.4,29.95,WNW,303,0.0,0.0,95,0.00,,---,0.00,VWS V14.01,2013-03-04 08:31:00,
2013-03-04 01:37:00,27.5,26.3,29.94,WNW,303,0.0,0.0,95,0.00,,---,0.00,VWS V14.01,2013-03-04 08:37:00,
2013-03-04 01:42:00,27.5,26.3,29.94,WNW,303,0.0,0.0,95,0.00,,---,0.00,VWS V14.01,2013-03-04 08:42:00,
2013-03-04 01:47:00,27.4,26.2,29.94,WNW,303,0.0,0.0,95,0.00,,---,0.00,VWS V14.01,2013-03-04 08:47:00,
2013-03-04 01:52:00,27.4,26.2,29.94,WNW,303,0.0,0.0,95,0.00,,---,0.00,VWS V14.01,2013-03-04 08:52:00,
2013-03-04 01:57:00,27.4,26.2,29.94,WNW,303,0.0,0.0,95,0.00,,---,0.00,VWS V14.01,2013-03-04 08:57:00,
2013-03-04 02:02:00,27.4,26.2,29.94,WNW,303,0.0,0.0,95,0.00,,---,0.00,VWS V14.01,2013-03-04 09:02:00,
2013-03-04 02:07:00,27.3,26.1,29.94,WNW,303,0.0,0.0,95,0.00,,---,0.00,VWS V14.01,2013-03-04 09:07:00,
2013-03-04 02:12:00,27.3,26.1,29.93,WNW,303,0.0,0.0,95,0.00,,---,0.00,VWS V14.01,2013-03-04 09:12:00,
2013-03-04 02:17:00,27.2,26.0,29.93,WNW,303,0.0,0.0,95,0.00,,---,0.00,VWS V14.01,2013-03-04 09:17:00,
2013-03-04 02:22:00,27.2,26.0,29.93,WNW,303,0.0,0.0,95,0.00,,---,0.00,VWS V14.01,2013-03-04 09:22:00,
2013-03-04 02:27:00,27.2,26.0,29.93,WNW,303,0.0,0.0,95,0.00,,---,0.00,VWS V14.01,2013-03-04 09:27:00,
2013-03-04 02:32:00,27.2,26.0,29.93,WNW,303,0.0,0.0,95,0.00,,---,0.00,VWS V14.01,2013-03-04 09:32:00,
2013-03-04 02:37:00,27.2,26.0,29.93,WNW,303,0.0,0.0,95,0.00,,---,0.00,VWS V14.01,2013-03-04 09:37:00,
2013-03-04 02:42:00,27.2,26.0,29.92,WNW,303,0.0,0.0,95,0.00,,---,0.00,VWS V14.01,2013-03-04 09:42:00,
2013-03-04 02:47:00,27.2,26.0,29.92,WNW,303,0.0,0.0,95,0.00,,---,0.00,VWS V14.01,2013-03-04 09:47:00,
2013-03-04 02:52:00,27.2,26.0,29.92,WNW,303,0.0,0.0,95,0.00,,---,0.00,VWS V14.01,2013-03-04 09:52:00,
2013-03-04 02:57:00,27.2,26.0,29.92,WNW,303,0.0,0.0,95,0.00,,---,0.00,VWS V14.01,2013-03-04 09:57:00,
2013-03-04 03:02:00,27.2,26.0,29.92,WNW,303,0.0,0.0,95,0.00,,---,0.00,VWS V14.01,2013-03-04 10:02:00,
2013-03-04 03:07:00,27.3,26.1,29.91,WNW,303,0.0,0.0,95,0.00,,---,0.00,VWS V14.01,2013-03-04 10:07:00,
2013-03-04 03:12:00,27.2,26.0,29.91,WNW,303,0.0,0.0,95,0.00,,---,0.00,VWS V14.01,2013-03-04 10:12:00,
2013-03-04 03:17:00,27.2,26.0,29.90,WNW,303,0.0,0.0,95,0.00,,---,0.00,VWS V14.01,2013-03-04 10:17:00,
2013-03-04 03:22:00,27.3,26.1,29.90,WNW,303,0.0,0.0,95,0.00,,---,0.00,VWS V14.01,2013-03-04 10:22:00,
2013-03-04 03:27:00,27.3,26.1,29.90,WNW,303,0.0,0.0,95,0.00,,---,0.00,VWS V14.01,2013-03-04 10:27:00,
2013-03-04 03:32:00,27.3,26.1,29.90,WNW,303,0.0,0.0,95,0.00,,---,0.00,VWS V14.01,2013-03-04 10:32:00,
2013-03-04 03:37:00,27.3,26.1,29.89,WNW,303,0.0,0.0,95,0.00,,---,0.00,VWS V14.01,2013-03-04 10:37:00,
2013-03-04 03:42:00,27.3,26.1,29.89,WNW,303,0.0,0.0,95,0.00,,---,0.00,VWS V14.01,2013-03-04 10:42:00,
2013-03-04 03:47:00,27.3,26.1,29.89,WNW,303,0.0,0.0,95,0.00,,---,0.00,VWS V14.01,2013-03-04 10:47:00,
2013-03-04 03:52:00,27.3,26.1,29.89,WNW,303,0.0,0.0,95,0.00,,---,0.00,VWS V14.01,2013-03-04 10:52:00,
2013-03-04 03:57:00,27.2,26.0,29.89,WNW,303,0.0,0.0,95,0.00,,---,0.00,VWS V14.01,2013-03-04 10:57:00,
2013-03-04 04:02:00,27.2,26.0,29.89,WNW,303,0.0,0.0,95,0.00,,---,0.00,VWS V14.01,2013-03-04 11:02:00,
2013-03-04 04:07:00,27.2,26.0,29.89,WNW,303,0.0,0.0,95,0.00,,---,0.00,VWS V14.01,2013-03-04 11:07:00,
2013-03-04 04:12:00,27.2,26.0,29.88,WNW,303,0.0,0.0,95,0.00,,---,0.00,VWS V14.01,2013-03-04 11:12:00,
2013-03-04 04:17:00,27.2,26.0,29.89,WNW,303,0.0,0.0,95,0.00,,---,0.00,VWS V14.01,2013-03-04 11:17:00,
2013-03-04 04:22:00,27.1,25.9,29.89,WNW,303,0.0,0.0,95,0.00,,---,0.00,VWS V14.01,2013-03-04 11:22:00,
2013-03-04 04:27:00,27.1,25.9,29.89,WNW,303,0.0,0.0,95,0.00,,---,0.00,VWS V14.01,2013-03-04 11:27:00,
2013-03-04 04:32:00,27.0,25.8,29.89,WNW,303,0.0,0.0,95,0.00,,---,0.00,VWS V14.01,2013-03-04 11:32:00,
2013-03-04 04:37:00,27.0,25.8,29.89,WNW,303,0.0,0.0,95,0.00,,---,0.00,VWS V14.01,2013-03-04 11:37:00,
2013-03-04 04:42:00,27.0,25.8,29.89,WNW,303,0.0,0.0,95,0.00,,---,0.00,VWS V14.01,2013-03-04 11:42:00,
2013-03-04 04:47:00,27.0,25.8,29.89,WNW,303,0.0,0.0,95,0.00,,---,0.00,VWS V14.01,2013-03-04 11:47:00,
2013-03-04 04:52:00,27.0,25.8,29.89,WNW,303,0.0,0.0,95,0.00,,---,0.00,VWS V14.01,2013-03-04 11:52:00,
2013-03-04 04:57:00,27.0,25.8,29.89,WNW,303,0.0,0.0,95,0.00,,---,0.00,VWS V14.01,2013-03-04 11:57:00,
2013-03-04 05:02:00,26.9,25.7,29.89,WNW,303,0.0,0.0,95,0.00,,---,0.00,VWS V14.01,2013-03-04 12:02:00,
2013-03-04 05:07:00,26.8,25.6,29.89,WNW,303,0.0,0.0,95,0.00,,---,0.00,VWS V14.01,2013-03-04 12:07:00,
2013-03-04 05:12:00,26.7,25.5,29.89,WNW,303,0.0,0.0,95,0.00,,---,0.00,VWS V14.01,2013-03-04 12:12:00,
2013-03-04 05:17:00,26.6,25.4,29.89,WNW,303,0.0,0.0,95,0.00,,---,0.00,VWS V14.01,2013-03-04 12:17:00,
2013-03-04 05:22:00,26.6,25.4,29.89,WNW,303,0.0,0.0,95,0.00,,---,0.00,VWS V14.01,2013-03-04 12:22:00,
2013-03-04 05:28:00,26.5,25.3,29.89,WNW,303,0.0,0.0,95,0.00,,---,0.00,VWS V14.01,2013-03-04 12:28:00,
2013-03-04 05:33:00,26.5,25.3,29.88,WNW,303,0.0,0.0,95,0.00,,---,0.00,VWS V14.01,2013-03-04 12:33:00,
2013-03-04 05:38:00,26.7,25.5,29.88,WNW,303,0.0,0.0,95,0.00,,---,0.00,VWS V14.01,2013-03-04 12:38:00,
2013-03-04 05:43:00,26.8,25.6,29.88,WNW,303,0.0,0.0,95,0.00,,---,0.00,VWS V14.01,2013-03-04 12:43:00,
2013-03-04 05:48:00,26.9,25.7,29.88,WNW,303,0.0,0.0,95,0.00,,---,0.00,VWS V14.01,2013-03-04 12:48:00,
2013-03-04 05:53:00,26.9,25.7,29.88,WNW,303,0.0,0.0,95,0.00,,---,0.00,VWS V14.01,2013-03-04 12:53:00,
2013-03-04 05:58:00,26.8,25.6,29.87,WNW,303,0.0,0.0,95,0.00,,---,0.00,VWS V14.01,2013-03-04 12:58:00,
2013-03-04 06:03:00,26.8,25.6,29.87,WNW,303,0.0,0.0,95,0.00,,---,0.00,VWS V14.01,2013-03-04 13:03:00,
2013-03-04 06:08:00,26.7,25.5,29.87,WNW,303,0.0,0.0,95,0.00,,---,0.00,VWS V14.01,2013-03-04 13:08:00,
2013-03-04 06:13:00,26.7,25.5,29.87,WNW,303,0.0,0.0,95,0.00,,---,0.00,VWS V14.01,2013-03-04 13:13:00,
2013-03-04 06:18:00,26.7,25.5,29.87,WNW,303,0.0,0.0,95,0.00,,---,0.00,VWS V14.01,2013-03-04 13:18:00,
2013-03-04 06:23:00,26.7,25.5,29.87,WNW,303,0.0,0.0,95,0.00,,---,0.00,VWS V14.01,2013-03-04 13:23:00,
2013-03-04 06:28:00,26.7,25.5,29.86,WNW,303,0.0,0.0,95,0.00,,---,0.00,VWS V14.01,2013-03-04 13:28:00,
2013-03-04 06:33:00,26.8,25.6,29.86,WNW,303,0.0,0.0,95,0.00,,---,0.00,VWS V14.01,2013-03-04 13:33:00,
2013-03-04 06:38:00,26.8,25.6,29.86,WNW,303,0.0,0.0,95,0.00,,---,0.00,VWS V14.01,2013-03-04 13:38:00,
2013-03-04 06:43:00,26.8,25.6,29.85,WNW,303,0.0,0.0,95,0.00,,---,0.00,VWS V14.01,2013-03-04 13:43:00,
2013-03-04 06:48:00,26.8,25.6,29.86,WNW,303,0.0,0.0,95,0.00,,---,0.00,VWS V14.01,2013-03-04 13:48:00,
2013-03-04 06:53:00,26.8,25.6,29.86,WNW,303,0.0,0.0,95,0.00,,---,0.00,VWS V14.01,2013-03-04 13:53:00,
2013-03-04 06:58:00,26.7,25.5,29.86,WNW,303,0.0,0.0,95,0.00,,---,0.00,VWS V14.01,2013-03-04 13:58:00,
2013-03-04 07:03:00,26.7,25.5,29.86,WNW,303,0.0,0.0,95,0.00,,---,0.00,VWS V14.01,2013-03-04 14:03:00,
2013-03-04 07:08:00,26.9,25.7,29.86,WNW,303,0.0,0.0,95,0.00,,---,0.00,VWS V14.01,2013-03-04 14:08:00,
2013-03-04 07:13:00,26.9,25.7,29.85,WNW,303,0.0,0.0,95,0.00,,---,0.00,VWS V14.01,2013-03-04 14:13:00,
2013-03-04 07:18:00,27.0,25.8,29.85,WNW,303,0.0,0.0,95,0.00,,---,0.00,VWS V14.01,2013-03-04 14:18:00,
2013-03-04 07:23:00,27.1,25.9,29.85,WNW,303,0.0,0.0,95,0.00,,---,0.00,VWS V14.01,2013-03-04 14:23:00,
2013-03-04 07:28:00,27.0,25.8,29.86,WNW,303,0.0,0.0,95,0.00,,---,0.00,VWS V14.01,2013-03-04 14:28:00,
2013-03-04 07:33:00,27.0,25.8,29.86,WNW,303,0.0,0.0,95,0.00,,---,0.00,VWS V14.01,2013-03-04 14:33:00,
2013-03-04 07:38:00,27.0,25.8,29.85,WNW,303,0.0,0.0,95,0.00,,---,0.00,VWS V14.01,2013-03-04 14:38:00,
2013-03-04 07:43:00,27.2,26.0,29.85,WNW,303,0.0,0.0,95,0.00,,---,0.00,VWS V14.01,2013-03-04 14:43:00,
2013-03-04 07:48:00,27.4,26.2,29.85,NW,304,0.0,0.0,95,0.00,,---,0.00,VWS V14.01,2013-03-04 14:48:00,
2013-03-04 07:53:00,27.6,26.4,29.85,NW,304,0.0,0.0,95,0.00,,---,0.00,VWS V14.01,2013-03-04 14:53:00,
2013-03-04 07:58:00,27.8,26.6,29.86,NW,304,0.0,0.0,95,0.00,,---,0.00,VWS V14.01,2013-03-04 14:58:00,
2013-03-04 08:03:00,28.0,26.8,29.85,NW,304,0.0,0.0,95,0.00,,---,0.00,VWS V14.01,2013-03-04 15:03:00,
2013-03-04 08:08:00,27.9,26.7,29.86,NW,304,0.0,0.0,95,0.00,,---,0.00,VWS V14.01,2013-03-04 15:08:00,
2013-03-04 08:13:00,27.8,26.6,29.85,NW,304,0.0,0.0,95,0.00,,---,0.00,VWS V14.01,2013-03-04 15:13:00,
2013-03-04 08:18:00,27.5,26.0,29.85,NW,304,0.0,0.0,94,0.00,,---,0.00,VWS V14.01,2013-03-04 15:18:00,
2013-03-04 08:23:00,27.5,26.0,29.85,NW,304,0.0,0.0,94,0.00,,---,0.00,VWS V14.01,2013-03-04 15:23:00,
2013-03-04 08:29:00,27.5,26.0,29.85,NW,304,0.0,0.0,94,0.00,,---,0.00,VWS V14.01,2013-03-04 15:29:00,
2013-03-04 08:34:00,27.6,26.1,29.85,NW,304,0.0,0.0,94,0.00,,---,0.00,VWS V14.01,2013-03-04 15:34:00,
2013-03-04 08:39:00,27.7,26.2,29.85,NW,304,0.0,0.0,94,0.00,,---,0.00,VWS V14.01,2013-03-04 15:39:00,
2013-03-04 08:44:00,27.8,26.3,29.85,NW,304,0.0,0.0,94,0.00,,---,0.00,VWS V14.01,2013-03-04 15:44:00,
2013-03-04 08:49:00,28.2,26.7,29.85,NW,304,0.0,0.0,94,0.00,,---,0.00,VWS V14.01,2013-03-04 15:49:00,
2013-03-04 08:54:00,28.5,27.0,29.85,NW,304,0.0,0.0,94,0.00,,---,0.00,VWS V14.01,2013-03-04 15:54:00,
2013-03-04 08:59:00,28.9,27.4,29.85,NW,304,0.0,0.0,94,0.00,,---,0.00,VWS V14.01,2013-03-04 15:59:00,
2013-03-04 09:04:00,30.6,28.0,29.85,NW,304,0.0,0.0,90,0.00,,---,0.00,VWS V14.01,2013-03-04 16:04:00,
2013-03-04 09:09:00,32.0,28.0,29.85,NW,304,0.0,0.0,85,0.00,,---,0.00,VWS V14.01,2013-03-04 16:09:00,
2013-03-04 09:14:00,31.4,27.4,29.85,NW,320,0.0,0.0,85,0.00,,---,0.00,VWS V14.01,2013-03-04 16:14:00,
2013-03-04 09:19:00,31.0,27.3,29.84,NNW,330,0.0,0.0,86,0.00,,---,0.00,VWS V14.01,2013-03-04 16:19:00,
2013-03-04 09:24:00,30.6,26.4,29.84,NNW,331,0.0,0.0,84,0.00,,---,0.00,VWS V14.01,2013-03-04 16:24:00,
2013-03-04 09:29:00,30.5,26.2,29.84,NNW,338,0.0,0.0,84,0.00,,---,0.00,VWS V14.01,2013-03-04 16:29:00,
2013-03-04 09:34:00,31.0,25.9,29.84,NE,38,0.0,0.0,81,0.00,,---,0.00,VWS V14.01,2013-03-04 16:34:00,
2013-03-04 09:39:00,31.7,25.6,29.83,NE,37,0.0,0.0,78,0.00,,---,0.00,VWS V14.01,2013-03-04 16:39:00,
2013-03-04 09:44:00,31.9,25.5,29.84,West,279,5.0,5.0,77,0.00,,---,0.00,VWS V14.01,2013-03-04 16:44:00,
2013-03-04 09:49:00,32.0,25.0,29.84,WNW,295,4.0,6.0,75,0.00,,---,0.00,VWS V14.01,2013-03-04 16:49:00,
2013-03-04 09:54:00,31.7,25.0,29.84,WNW,294,0.0,0.0,76,0.00,,---,0.00,VWS V14.01,2013-03-04 16:54:00,
2013-03-04 09:59:00,32.0,25.9,29.84,NW,306,10.0,11.0,78,0.00,,---,0.00,VWS V14.01,2013-03-04 16:59:00,
2013-03-04 10:04:00,31.2,25.8,29.84,WNW,302,15.0,15.0,80,0.00,,---,0.00,VWS V14.01,2013-03-04 17:04:00,
2013-03-04 10:09:00,30.3,25.5,29.84,WNW,295,7.0,7.0,82,0.00,,---,0.00,VWS V14.01,2013-03-04 17:09:00,
2013-03-04 10:14:00,29.3,24.2,29.85,WNW,298,17.0,19.0,81,0.00,,---,0.00,VWS V14.01,2013-03-04 17:14:00,
2013-03-04 10:19:00,28.3,22.9,29.86,West,261,11.0,11.0,80,0.00,,---,0.00,VWS V14.01,2013-03-04 17:19:00,
2013-03-04 10:24:00,27.6,23.4,29.86,West,266,13.0,16.0,84,0.00,,---,0.00,VWS V14.01,2013-03-04 17:24:00,
2013-03-04 10:29:00,27.5,23.9,29.86,West,261,5.0,5.0,86,0.00,,---,0.00,VWS V14.01,2013-03-04 17:29:00,
2013-03-04 10:34:00,29.0,24.5,29.86,WNW,284,10.0,10.0,83,0.00,,---,0.00,VWS V14.01,2013-03-04 17:34:00,
2013-03-04 10:39:00,28.7,23.0,29.86,West,281,15.0,17.0,79,0.01,,---,0.01,VWS V14.01,2013-03-04 17:39:00,
2013-03-04 10:44:00,27.9,23.1,29.86,West,275,10.0,10.0,82,0.01,,---,0.01,VWS V14.01,2013-03-04 17:44:00,
2013-03-04 10:49:00,28.1,23.9,29.86,West,273,6.0,6.0,84,0.01,,---,0.01,VWS V14.01,2013-03-04 17:49:00,
2013-03-04 10:54:00,29.5,24.1,29.86,West,273,3.0,4.0,80,0.01,,---,0.01,VWS V14.01,2013-03-04 17:54:00,
2013-03-04 10:59:00,30.1,24.1,29.86,West,273,3.0,3.0,78,0.01,,---,0.01,VWS V14.01,2013-03-04 17:59:00,
2013-03-04 11:04:00,30.5,24.8,29.86,SSW,213,7.0,11.0,79,0.01,,---,0.01,VWS V14.01,2013-03-04 18:04:00,
2013-03-04 11:09:00,30.1,24.4,29.86,SW,225,17.0,17.0,79,0.01,,---,0.01,VWS V14.01,2013-03-04 18:09:00,
2013-03-04 11:14:00,29.1,24.3,29.86,SW,221,10.0,11.0,82,0.01,,---,0.01,VWS V14.01,2013-03-04 18:14:00,
2013-03-04 11:19:00,29.2,24.4,29.86,WNW,295,10.0,10.0,82,0.01,,---,0.01,VWS V14.01,2013-03-04 18:19:00,
2013-03-04 11:24:00,29.5,25.0,29.86,NNW,333,10.0,10.0,83,0.01,,---,0.01,VWS V14.01,2013-03-04 18:24:00,
2013-03-04 11:29:00,29.3,24.5,29.86,North,350,9.0,9.0,82,0.01,,---,0.01,VWS V14.01,2013-03-04 18:29:00,
2013-03-04 11:30:00,29.3,24.5,29.86,North,350,7.0,9.0,82,0.01,,---,0.01,VWS V14.01,2013-03-04 18:30:00,
2013-03-04 11:35:00,28.8,24.3,29.86,North,350,2.0,4.0,83,0.01,,---,0.01,VWS V14.01,2013-03-04 18:35:00,
2013-03-04 11:40:00,29.7,24.9,29.86,North,350,3.0,3.0,82,0.00,,---,0.01,VWS V14.01,2013-03-04 18:40:00,
2013-03-04 11:45:00,30.1,25.0,29.85,North,355,5.0,5.0,81,0.00,,---,0.01,VWS V14.01,2013-03-04 18:45:00,
2013-03-04 11:50:00,30.6,24.3,29.84,NNE,29,2.0,4.0,77,0.00,,---,0.01,VWS V14.01,2013-03-04 18:50:00,
2013-03-04 11:55:00,30.6,23.6,29.85,NNE,28,0.0,1.0,75,0.00,,---,0.01,VWS V14.01,2013-03-04 18:55:00,
2013-03-04 12:00:00,31.1,23.5,29.84,NNE,30,0.0,1.0,73,0.01,,---,0.02,VWS V14.01,2013-03-04 19:00:00,
2013-03-04 12:05:00,32.2,23.9,29.84,NNE,33,2.0,3.0,71,0.02,,---,0.03,VWS V14.01,2013-03-04 19:05:00,
2013-03-04 12:10:00,32.5,23.1,29.84,SE,136,7.0,10.0,68,0.02,,---,0.03,VWS V14.01,2013-03-04 19:10:00,
2013-03-04 12:15:00,33.5,22.6,29.85,NW,319,13.0,19.0,64,0.03,,---,0.04,VWS V14.01,2013-03-04 19:15:00,
2013-03-04 12:20:00,33.8,22.2,29.85,NW,309,7.0,21.0,62,0.04,,---,0.05,VWS V14.01,2013-03-04 19:20:00,
2013-03-04 12:25:00,33.6,21.6,29.85,West,261,20.0,27.0,61,0.04,,---,0.05,VWS V14.01,2013-03-04 19:25:00,
2013-03-04 12:30:00,32.4,21.6,29.85,West,281,10.0,15.0,64,0.05,,---,0.06,VWS V14.01,2013-03-04 19:30:00,
2013-03-04 12:35:00,32.4,23.0,29.85,NW,310,11.0,12.0,68,0.06,,---,0.07,VWS V14.01,2013-03-04 19:35:00,
2013-03-04 12:40:00,32.6,22.5,29.85,NNW,342,10.0,29.0,66,0.07,,---,0.08,VWS V14.01,2013-03-04 19:40:00,
2013-03-04 12:45:00,32.2,22.1,29.85,West,267,13.0,19.0,66,0.08,,---,0.09,VWS V14.01,2013-03-04 19:45:00,
2013-03-04 12:50:00,32.1,22.0,29.85,NW,310,10.0,17.0,66,0.08,,---,0.09,VWS V14.01,2013-03-04 19:50:00,
2013-03-04 12:55:00,31.6,23.3,29.85,NNW,333,7.0,13.0,71,0.09,,---,0.10,VWS V14.01,2013-03-04 19:55:00,
2013-03-04 13:00:00,31.3,22.3,29.84,NW,313,12.0,15.0,69,0.08,,---,0.10,VWS V14.01,2013-03-04 20:00:00,
2013-03-04 13:05:00,31.8,22.8,29.83,NNE,19,12.0,15.0,69,0.08,,---,0.11,VWS V14.01,2013-03-04 20:05:00,
2013-03-04 13:10:00,30.7,23.4,29.83,NNW,327,10.0,13.0,74,0.08,,---,0.11,VWS V14.01,2013-03-04 20:10:00,
2013-03-04 13:15:00,30.4,22.1,29.83,WNW,296,11.0,14.0,71,0.08,,---,0.12,VWS V14.01,2013-03-04 20:15:00,
2013-03-04 13:20:00,30.5,22.6,29.82,WNW,284,12.0,12.0,72,0.07,,---,0.12,VWS V14.01,2013-03-04 20:20:00,
2013-03-04 13:25:00,30.8,21.1,29.82,West,263,8.0,17.0,67,0.08,,---,0.13,VWS V14.01,2013-03-04 20:25:00,
2013-03-04 13:30:00,30.4,21.8,29.82,SW,225,19.0,19.0,70,0.07,,---,0.13,VWS V14.01,2013-03-04 20:30:00,
2013-03-04 13:35:00,29.8,22.2,29.83,WSW,252,11.0,20.0,73,0.06,,---,0.13,VWS V14.01,2013-03-04 20:35:00,
2013-03-04 13:40:00,28.7,22.7,29.83,WSW,258,10.0,16.0,78,0.06,,---,0.14,VWS V14.01,2013-03-04 20:40:00,
2013-03-04 13:45:00,27.8,22.7,29.84,NW,314,10.0,10.0,81,0.06,,---,0.14,VWS V14.01,2013-03-04 20:45:00,
2013-03-04 13:50:00,27.0,23.1,29.83,NW,313,5.0,6.0,85,0.05,,---,0.14,VWS V14.01,2013-03-04 20:50:00,
2013-03-04 13:55:00,26.8,23.5,29.84,NNW,327,10.0,12.0,87,0.05,,---,0.14,VWS V14.01,2013-03-04 20:55:00,
2013-03-04 14:00:00,26.6,23.5,29.84,NNW,341,8.0,13.0,88,0.04,,---,0.14,VWS V14.01,2013-03-04 21:00:00,
2013-03-04 14:05:00,26.5,23.7,29.84,WNW,293,7.0,7.0,89,0.03,,---,0.14,VWS V14.01,2013-03-04 21:05:00,
2013-03-04 14:10:00,26.7,23.6,29.84,WNW,298,3.0,7.0,88,0.03,,---,0.14,VWS V14.01,2013-03-04 21:10:00,
2013-03-04 14:15:00,26.7,23.6,29.84,NNW,344,6.0,9.0,88,0.03,,---,0.15,VWS V14.01,2013-03-04 21:15:00,
2013-03-04 14:20:00,27.4,24.0,29.85,NNW,338,4.0,4.0,87,0.03,,---,0.15,VWS V14.01,2013-03-04 21:20:00,
2013-03-04 14:25:00,28.1,23.6,29.84,WSW,257,6.0,19.0,83,0.02,,---,0.15,VWS V14.01,2013-03-04 21:25:00,
2013-03-04 14:30:00,28.4,23.0,29.84,NNW,334,19.0,19.0,80,0.02,,---,0.15,VWS V14.01,2013-03-04 21:30:00,
2013-03-04 14:35:00,27.4,22.9,29.85,NNW,327,18.0,20.0,83,0.02,,---,0.15,VWS V14.01,2013-03-04 21:35:00,
2013-03-04 14:40:00,26.3,22.1,29.86,NW,305,9.0,10.0,84,0.01,,---,0.15,VWS V14.01,2013-03-04 21:40:00,
2013-03-04 14:45:00,25.7,22.1,29.88,NW,310,11.0,11.0,86,0.01,,---,0.15,VWS V14.01,2013-03-04 21:45:00,
2013-03-04 14:50:00,25.7,22.4,29.89,WNW,290,9.0,9.0,87,0.01,,---,0.15,VWS V14.01,2013-03-04 21:50:00,
2013-03-04 14:55:00,25.7,22.4,29.89,NW,311,8.0,9.0,87,0.01,,---,0.15,VWS V14.01,2013-03-04 21:55:00,
2013-03-04 15:00:00,25.3,22.2,29.89,NNW,335,12.0,17.0,88,0.01,,---,0.15,VWS V14.01,2013-03-04 22:00:00,
2013-03-04 15:05:00,25.1,21.8,29.89,NNW,344,14.0,14.0,87,0.01,,---,0.15,VWS V14.01,2013-03-04 22:05:00,
2013-03-04 15:10:00,25.0,21.7,29.89,NNW,330,13.0,13.0,87,0.01,,---,0.15,VWS V14.01,2013-03-04 22:10:00,
2013-03-04 15:15:00,24.8,21.5,29.90,NW,322,15.0,16.0,87,0.00,,---,0.15,VWS V14.01,2013-03-04 22:15:00,
2013-03-04 15:20:00,24.8,21.5,29.92,NW,317,11.0,13.0,87,0.00,,---,0.15,VWS V14.01,2013-03-04 22:20:00,
2013-03-04 15:25:00,25.0,21.7,29.92,NW,307,7.0,8.0,87,0.00,,---,0.15,VWS V14.01,2013-03-04 22:25:00,
2013-03-04 15:30:00,25.0,21.1,29.92,NW,304,8.0,10.0,85,0.00,,---,0.15,VWS V14.01,2013-03-04 22:30:00,
2013-03-04 15:35:00,25.2,22.1,29.93,WNW,286,5.0,5.0,88,0.00,,---,0.15,VWS V14.01,2013-03-04 22:35:00,
2013-03-04 15:40:00,25.3,21.4,29.92,WNW,286,11.0,12.0,85,0.00,,---,0.15,VWS V14.01,2013-03-04 22:40:00,
2013-03-04 15:45:00,25.5,20.5,29.92,NW,323,9.0,11.0,81,0.00,,---,0.15,VWS V14.01,2013-03-04 22:45:00,
2013-03-04 15:50:00,26.2,20.3,29.92,NW,309,7.0,8.0,78,0.00,,---,0.15,VWS V14.01,2013-03-04 22:50:00,
2013-03-04 15:55:00,26.4,19.2,29.93,West,273,6.0,7.0,74,0.00,,---,0.15,VWS V14.01,2013-03-04 22:55:00,
2013-03-04 16:00:00,25.8,20.8,29.94,WSW,253,6.0,7.0,81,0.00,,---,0.15,VWS V14.01,2013-03-04 23:00:00,
2013-03-04 16:05:00,24.9,19.6,29.96,SW,236,24.0,25.0,80,0.01,,---,0.16,VWS V14.01,2013-03-04 23:05:00,
2013-03-04 16:10:00,23.7,18.7,29.96,WSW,251,11.0,15.0,81,0.01,,---,0.16,VWS V14.01,2013-03-04 23:10:00,
2013-03-04 16:15:00,24.1,18.5,29.97,WNW,286,15.0,15.0,79,0.01,,---,0.16,VWS V14.01,2013-03-04 23:15:00,
2013-03-04 16:20:00,25.2,17.5,29.98,NNW,332,19.0,23.0,72,0.01,,---,0.16,VWS V14.01,2013-03-04 23:20:00,
2013-03-04 16:26:00,24.6,17.2,29.98,NW,320,18.0,23.0,73,0.01,,---,0.16,VWS V14.01,2013-03-04 23:26:00,
2013-03-04 16:31:00,24.1,15.4,29.99,WNW,294,11.0,15.0,69,0.01,,---,0.16,VWS V14.01,2013-03-04 23:31:00,
2013-03-04 16:36:00,24.2,15.5,29.99,NW,319,14.0,19.0,69,0.01,,---,0.16,VWS V14.01,2013-03-04 23:36:00,
2013-03-04 16:41:00,24.1,15.1,30.00,NW,323,15.0,18.0,68,0.01,,---,0.16,VWS V14.01,2013-03-04 23:41:00,
2013-03-04 16:46:00,24.0,14.6,30.01,West,271,7.0,7.0,67,0.01,,---,0.16,VWS V14.01,2013-03-04 23:46:00,
2013-03-04 16:51:00,24.3,14.9,30.02,NW,309,5.0,8.0,67,0.01,,---,0.16,VWS V14.01,2013-03-04 23:51:00,
2013-03-04 16:56:00,24.5,14.4,30.03,WNW,293,8.0,8.0,65,0.01,,---,0.16,VWS V14.01,2013-03-04 23:56:00,
2013-03-04 17:01:00,24.5,13.4,30.03,WNW,299,6.0,9.0,62,0.01,,---,0.16,VWS V14.01,2013-03-05 00:01:00,
2013-03-04 17:06:00,24.3,12.8,30.04,NW,315,14.0,14.0,61,0.00,,---,0.16,VWS V14.01,2013-03-05 00:06:00,
2013-03-04 17:11:00,24.1,11.1,30.05,WNW,285,7.0,9.0,57,0.00,,---,0.16,VWS V14.01,2013-03-05 00:11:00,
2013-03-04 17:16:00,23.8,10.0,30.06,WNW,297,8.0,9.0,55,0.00,,---,0.16,VWS V14.01,2013-03-05 00:16:00,
2013-03-04 17:21:00,23.1,8.9,30.06,WNW,300,8.0,8.0,54,0.00,,---,0.16,VWS V14.01,2013-03-05 00:21:00,
2013-03-04 17:26:00,22.5,8.4,30.07,WNW,299,7.0,7.0,54,0.00,,---,0.16,VWS V14.01,2013-03-05 00:26:00,
2013-03-04 17:31:00,22.4,8.7,30.08,West,262,8.0,9.0,55,0.00,,---,0.16,VWS V14.01,2013-03-05 00:31:00,
2013-03-04 17:36:00,21.7,10.3,30.08,West,269,8.0,10.0,61,0.00,,---,0.16,VWS V14.01,2013-03-05 00:36:00,
2013-03-04 17:41:00,21.3,10.0,30.09,West,275,4.0,5.0,61,0.00,,---,0.16,VWS V14.01,2013-03-05 00:41:00,
2013-03-04 17:46:00,20.6,9.7,30.09,West,272,3.0,3.0,62,0.00,,---,0.16,VWS V14.01,2013-03-05 00:46:00,
2013-03-04 17:51:00,19.7,6.2,30.09,West,271,7.0,8.0,55,0.00,,---,0.16,VWS V14.01,2013-03-05 00:51:00,
2013-03-04 17:56:00,19.3,6.2,30.10,West,276,8.0,8.0,56,0.00,,---,0.16,VWS V14.01,2013-03-05 00:56:00,
2013-03-04 18:01:00,16.9,1.5,30.10,NW,320,6.0,6.0,50,0.00,,---,0.16,VWS V14.01,2013-03-05 01:01:00,
2013-03-04 18:06:00,15.8,0.9,30.11,NW,323,9.0,9.0,51,0.00,,---,0.16,VWS V14.01,2013-03-05 01:06:00,
2013-03-04 18:11:00,14.8,0.8,30.11,NNW,333,14.0,14.0,53,0.00,,---,0.16,VWS V14.01,2013-03-05 01:11:00,
2013-03-04 18:16:00,14.1,0.9,30.12,NNW,335,13.0,14.0,55,0.00,,---,0.16,VWS V14.01,2013-03-05 01:16:00,
2013-03-04 18:21:00,13.9,1.5,30.13,NNW,335,13.0,13.0,57,0.00,,---,0.16,VWS V14.01,2013-03-05 01:21:00,
2013-03-04 18:26:00,14.3,1.9,30.14,NNW,329,11.0,11.0,57,0.00,,---,0.16,VWS V14.01,2013-03-05 01:26:00,
2013-03-04 18:31:00,15.9,3.0,30.15,NW,315,8.0,9.0,56,0.00,,---,0.16,VWS V14.01,2013-03-05 01:31:00,
2013-03-04 18:36:00,16.4,2.3,30.15,NW,311,10.0,10.0,53,0.00,,---,0.16,VWS V14.01,2013-03-05 01:36:00,
2013-03-04 18:41:00,16.8,2.2,30.15,NNW,327,12.0,13.0,52,0.00,,---,0.16,VWS V14.01,2013-03-05 01:41:00,
2013-03-04 18:46:00,15.9,2.6,30.16,NW,313,9.0,10.0,55,0.00,,---,0.16,VWS V14.01,2013-03-05 01:46:00,
2013-03-04 18:51:00,16.9,3.1,30.16,NW,306,9.0,9.0,54,0.00,,---,0.16,VWS V14.01,2013-03-05 01:51:00,
2013-03-04 18:56:00,17.9,3.3,30.17,WNW,292,11.0,11.0,52,0.00,,---,0.16,VWS V14.01,2013-03-05 01:56:00,
2013-03-04 19:01:00,16.8,1.4,30.17,NNW,339,14.0,14.0,50,0.00,,---,0.16,VWS V14.01,2013-03-05 02:01:00,
2013-03-04 19:06:00,13.1,1.1,30.18,NNW,339,14.0,14.0,58,0.00,,---,0.16,VWS V14.01,2013-03-05 02:06:00,
2013-03-04 19:11:00,11.3,1.5,30.19,NNW,338,11.0,11.0,64,0.00,,---,0.16,VWS V14.01,2013-03-05 02:11:00,
2013-03-04 19:16:00,10.6,0.8,30.19,NNW,337,10.0,10.0,64,0.00,,---,0.16,VWS V14.01,2013-03-05 02:16:00,
2013-03-04 19:21:00,10.1,1.0,30.19,NNW,339,13.0,13.0,66,0.00,,---,0.16,VWS V14.01,2013-03-05 02:21:00,
2013-03-04 19:26:00,9.2,0.8,30.20,NNW,341,7.0,8.0,68,0.00,,---,0.16,VWS V14.01,2013-03-05 02:26:00,
2013-03-04 19:31:00,8.5,0.7,30.20,NNW,338,11.0,13.0,70,0.00,,---,0.16,VWS V14.01,2013-03-05 02:31:00,
2013-03-04 19:36:00,8.3,0.9,30.21,NW,324,10.0,10.0,71,0.00,,---,0.16,VWS V14.01,2013-03-05 02:36:00,
2013-03-04 19:41:00,9.4,2.5,30.21,NNW,338,5.0,7.0,73,0.00,,---,0.16,VWS V14.01,2013-03-05 02:41:00,
2013-03-04 19:46:00,10.1,2.6,30.22,NNW,340,7.0,9.0,71,0.00,,---,0.16,VWS V14.01,2013-03-05 02:46:00,
2013-03-04 19:51:00,10.2,2.4,30.22,NNW,342,10.0,10.0,70,0.00,,---,0.16,VWS V14.01,2013-03-05 02:51:00,
2013-03-04 19:56:00,10.3,2.5,30.23,NNW,342,9.0,9.0,70,0.00,,---,0.16,VWS V14.01,2013-03-05 02:56:00,
2013-03-04 20:01:00,9.7,2.2,30.23,NNW,337,10.0,11.0,71,0.00,,---,0.16,VWS V14.01,2013-03-05 03:01:00,
2013-03-04 20:06:00,9.8,2.3,30.23,NNW,336,11.0,12.0,71,0.00,,---,0.16,VWS V14.01,2013-03-05 03:06:00,
2013-03-04 20:11:00,9.3,2.1,30.24,NNW,337,9.0,9.0,72,0.00,,---,0.16,VWS V14.01,2013-03-05 03:11:00,
2013-03-04 20:16:00,9.3,1.8,30.24,NNW,338,11.0,11.0,71,0.00,,---,0.16,VWS V14.01,2013-03-05 03:16:00,
2013-03-04 20:21:00,8.8,1.6,30.25,NNW,333,7.0,8.0,72,0.00,,---,0.16,VWS V14.01,2013-03-05 03:21:00,
2013-03-04 20:26:00,9.5,2.6,30.25,NNW,333,5.0,6.0,73,0.00,,---,0.16,VWS V14.01,2013-03-05 03:26:00,
2013-03-04 20:31:00,9.1,1.0,30.25,NNW,333,10.0,11.0,69,0.00,,---,0.16,VWS V14.01,2013-03-05 03:31:00,
2013-03-04 20:36:00,8.6,0.8,30.26,NNW,338,10.0,11.0,70,0.00,,---,0.16,VWS V14.01,2013-03-05 03:36:00,
2013-03-04 20:41:00,7.8,0.4,30.26,NNW,336,9.0,11.0,71,0.00,,---,0.16,VWS V14.01,2013-03-05 03:41:00,
2013-03-04 20:47:00,8.0,0.9,30.26,NNW,333,9.0,10.0,72,0.00,,---,0.16,VWS V14.01,2013-03-05 03:47:00,
2013-03-04 20:52:00,7.7,0.0,30.27,NNW,336,13.0,13.0,70,0.00,,---,0.16,VWS V14.01,2013-03-05 03:52:00,
2013-03-04 20:57:00,6.5,-0.6,30.27,NNW,340,14.0,16.0,72,0.00,,---,0.16,VWS V14.01,2013-03-05 03:57:00,
2013-03-04 21:02:00,6.3,-0.5,30.27,NNW,340,16.0,17.0,73,0.00,,---,0.16,VWS V14.01,2013-03-05 04:02:00,
2013-03-04 21:07:00,6.2,-0.6,30.27,NNW,339,14.0,14.0,73,0.00,,---,0.16,VWS V14.01,2013-03-05 04:07:00,
2013-03-04 21:12:00,5.0,-1.5,30.28,NNW,331,13.0,15.0,74,0.00,,---,0.16,VWS V14.01,2013-03-05 04:12:00,
2013-03-04 21:17:00,4.6,-1.6,30.29,NW,322,10.0,14.0,75,0.00,,---,0.16,VWS V14.01,2013-03-05 04:17:00,
2013-03-04 21:22:00,5.6,0.0,30.29,NW,326,10.0,11.0,77,0.00,,---,0.16,VWS V14.01,2013-03-05 04:22:00,
2013-03-04 21:27:00,5.4,-1.4,30.30,NNW,338,12.0,15.0,73,0.00,,---,0.16,VWS V14.01,2013-03-05 04:27:00,
2013-03-04 21:32:00,4.3,-2.4,30.30,NNW,343,16.0,17.0,73,0.00,,---,0.16,VWS V14.01,2013-03-05 04:32:00,
2013-03-04 21:37:00,3.3,-3.4,30.30,NNW,342,15.0,17.0,73,0.00,,---,0.16,VWS V14.01,2013-03-05 04:37:00,
2013-03-04 21:42:00,3.6,-2.3,30.31,NNW,333,15.0,17.0,76,0.00,,---,0.16,VWS V14.01,2013-03-05 04:42:00,
2013-03-04 21:47:00,3.8,-2.3,30.31,NNW,332,15.0,16.0,75,0.00,,---,0.16,VWS V14.01,2013-03-05 04:47:00,
2013-03-04 21:52:00,3.8,-2.3,30.32,NW,315,10.0,12.0,75,0.00,,---,0.16,VWS V14.01,2013-03-05 04:52:00,
2013-03-04 21:57:00,4.1,-1.8,30.32,NW,313,7.0,8.0,76,0.00,,---,0.16,VWS V14.01,2013-03-05 04:57:00,
2013-03-04 22:00:00,4.0,-2.4,30.32,NW,321,8.0,9.0,74,0.00,,---,0.16,VWS V14.01,2013-03-05 05:00:00,
2013-03-04 22:05:00,3.0,-4.0,30.32,NNW,328,4.0,7.0,72,0.00,,---,0.16,VWS V14.01,2013-03-05 05:05:00,
2013-03-04 22:10:00,1.9,-5.0,30.32,NNW,331,12.0,13.0,72,0.00,,---,0.16,VWS V14.01,2013-03-05 05:10:00,
2013-03-04 22:15:00,2.5,-2.8,30.33,NW,313,5.0,7.0,78,0.00,,---,0.16,VWS V14.01,2013-03-05 05:15:00,
2013-03-04 22:20:00,3.4,-2.5,30.33,NW,323,6.0,10.0,76,0.00,,---,0.16,VWS V14.01,2013-03-05 05:20:00,
2013-03-04 22:25:00,3.6,-2.3,30.34,NW,323,5.0,8.0,76,0.00,,---,0.16,VWS V14.01,2013-03-05 05:25:00,
2013-03-04 22:30:00,3.6,-2.5,30.34,NW,323,5.0,7.0,75,0.00,,---,0.16,VWS V14.01,2013-03-05 05:30:00,
2013-03-04 22:36:00,2.6,-4.1,30.34,NNW,329,12.0,12.0,73,0.00,,---,0.16,VWS V14.01,2013-03-05 05:36:00,
2013-03-04 22:41:00,1.8,-4.8,30.35,NNW,329,9.0,10.0,73,0.00,,---,0.16,VWS V14.01,2013-03-05 05:41:00,
2013-03-04 22:46:00,0.8,-6.1,30.35,NNW,329,7.0,7.0,72,0.00,,---,0.16,VWS V14.01,2013-03-05 05:46:00,
2013-03-04 22:51:00,0.6,-5.4,30.34,NW,325,15.0,16.0,75,0.00,,---,0.16,VWS V14.01,2013-03-05 05:51:00,
2013-03-04 22:56:00,0.9,-4.6,30.35,NW,309,6.0,6.0,77,0.00,,---,0.16,VWS V14.01,2013-03-05 05:56:00,
2013-03-04 23:01:00,2.2,-2.3,30.35,NW,309,0.0,0.0,81,0.00,,---,0.16,VWS V14.01,2013-03-05 06:01:00,
2013-03-04 23:06:00,2.4,-2.3,30.35,NW,309,0.0,0.0,80,0.00,,---,0.16,VWS V14.01,2013-03-05 06:06:00,
2013-03-04 23:11:00,1.5,-4.6,30.36,NNW,327,8.0,9.0,75,0.00,,---,0.16,VWS V14.01,2013-03-05 06:11:00,
2013-03-04 23:16:00,0.8,-5.2,30.36,NNW,328,10.0,10.0,75,0.00,,---,0.16,VWS V14.01,2013-03-05 06:16:00,
2013-03-04 23:21:00,0.4,-5.6,30.37,NNW,328,7.0,8.0,75,0.00,,---,0.16,VWS V14.01,2013-03-05 06:21:00,
2013-03-04 23:26:00,0.5,-5.3,30.37,NNW,328,10.0,10.0,76,0.00,,---,0.16,VWS V14.01,2013-03-05 06:26:00,
2013-03-04 23:31:00,0.5,-5.5,30.37,NNW,328,7.0,10.0,75,0.00,,---,0.16,VWS V14.01,2013-03-05 06:31:00,
2013-03-04 23:36:00,0.2,-5.6,30.37,NNW,327,0.0,1.0,76,0.00,,---,0.16,VWS V14.01,2013-03-05 06:36:00,
2013-03-04 23:41:00,0.1,-4.8,30.38,NNW,327,0.0,0.0,79,0.00,,---,0.16,VWS V14.01,2013-03-05 06:41:00,
2013-03-04 23:46:00,0.2,-4.8,30.39,NNW,327,0.0,0.0,79,0.00,,---,0.16,VWS V14.01,2013-03-05 06:46:00,
2013-03-04 23:51:00,-0.1,-5.3,30.39,NNW,328,9.0,9.0,78,0.00,,---,0.16,VWS V14.01,2013-03-05 06:51:00,
2013-03-04 23:56:00,-1.4,-7.7,30.39,NNW,330,11.0,13.0,74,0.00,,---,0.16,VWS V14.01,2013-03-05 06:56:00,